Waarnemingen

Advertentie
Mijn weer
Landsort, Zweden (2582): temperatuur & dauwpunt: 11.10.2018 23:00:00 - 17.10.2018 23:00:00 (CEST)Landsort, Zweden (2582): windsnelheid & windstoten: 11.10.2018 23:00:00 - 17.10.2018 23:00:00 (CEST)Landsort, Zweden (2582): windrichting: 11.10.2018 23:00:00 - 17.10.2018 23:00:00 (CEST)Landsort, Zweden (2582): luchtdruk: 11.10.2018 23:00:00 - 17.10.2018 23:00:00 (CEST)Landsort, Zweden (2582): zicht: 11.10.2018 23:00:00 - 17.10.2018 23:00:00 (CEST)Landsort, Zweden (2582): neerslag: 11.10.2018 23:00:00 - 17.10.2018 23:00:00 (CEST)
Datum & Tijd tt [°C] td [°C] ff [km/u] ff [kn] fx [km/u] fx [kn] dd ppp [hPa] vv [km] rr [mm]
17.10.2018 23:00:00 - - - - - - - - - -
17.10.2018 22:00:00 10,0 9,5 23 12 34 18 ZW 1017,6 2,1 0,0
17.10.2018 21:00:00 9,5 9,4 13 7 24 13 ZW 1017,7 2,3 0,0
17.10.2018 20:00:00 9,5 9,4 15 8 20 11 ZW 1017,9 2,9 0,0
17.10.2018 19:00:00 - - - - - - - - - -
17.10.2018 18:00:00 - - - - - - - - - -
17.10.2018 17:00:00 7,2 7,1 10 6 22 12 ZZW 1018,3 0,8 0,0
17.10.2018 16:00:00 7,6 7,5 14 8 22 12 ZZW 1018,4 0,2 0,0
17.10.2018 15:00:00 7,9 7,8 16 8 21 12 ZW 1018,6 0,2 0,0
17.10.2018 14:00:00 9,4 9,3 15 8 21 12 ZW 1018,6 0,2 0,0
17.10.2018 13:00:00 9,2 9,1 14 8 22 12 WZW 1018,6 0,1 0,0
17.10.2018 12:00:00 10,3 10,0 15 8 22 12 ZW 1018,5 2,3 0,0
17.10.2018 11:00:00 9,4 9,3 14 8 21 12 ZW 1018,7 3,0 0,0
17.10.2018 10:00:00 8,3 8,2 14 7 19 10 WZW 1018,7 3,5 0,0
17.10.2018 09:00:00 8,0 7,9 14 8 19 10 WZW 1018,4 2,5 0,0
17.10.2018 08:00:00 8,0 7,9 11 6 19 10 WZW 1018,2 1,6 0,0
17.10.2018 07:00:00 8,4 8,3 13 7 20 11 ZZW 1017,7 1,4 0,0
17.10.2018 06:00:00 8,0 7,9 12 7 20 11 WZW 1018,0 0,2 0,0
17.10.2018 05:00:00 8,9 8,8 11 6 14 8 Z 1017,9 0,6 0,0
17.10.2018 04:00:00 8,7 8,6 8 5 16 9 ZZO 1018,1 0,8 0,0
17.10.2018 03:00:00 8,7 8,6 14 8 16 9 Z 1018,4 0,8 0,0
17.10.2018 02:00:00 8,5 8,4 10 6 16 9 ZO 1018,7 0,2 0,0
17.10.2018 01:00:00 8,6 8,5 5 3 16 9 ZZO 1019,1 0,2 0,0
17.10.2018 00:00:00 8,5 8,4 11 6 20 11 OZO 1019,3 0,1 0,0
16.10.2018 23:00:00 8,6 8,5 11 6 20 11 OZO 1019,7 0,1 0,0
16.10.2018 22:00:00 8,2 8,1 14 8 21 11 O 1020,0 0,2 0,0
16.10.2018 21:00:00 8,2 8,1 16 9 22 12 ONO 1020,1 0,2 0,0
16.10.2018 20:00:00 8,3 8,2 19 11 29 16 ONO 1020,2 0,3 0,0
16.10.2018 19:00:00 8,3 8,2 19 10 32 17 O 1020,1 0,4 0,0
16.10.2018 18:00:00 8,4 8,1 26 14 32 17 O 1019,4 0,5 0,0
16.10.2018 17:00:00 8,8 8,2 24 13 28 15 O 1019,8 36 0,0
16.10.2018 16:00:00 9,1 8,2 23 13 26 14 O 1019,6 50 0,0
16.10.2018 15:00:00 9,2 8,1 18 10 27 15 O 1019,4 13 0,0
16.10.2018 14:00:00 9,3 8,2 20 11 27 15 O 1019,2 11 0,0
16.10.2018 13:00:00 9,2 8,0 17 9 21 11 ONO 1018,9 10 0,0
16.10.2018 12:00:00 9,6 8,7 14 8 16 9 NO 1018,6 8 0,0
16.10.2018 11:00:00 9,8 8,4 9 5 16 9 NO 1018,4 12 0,0
16.10.2018 10:00:00 9,6 8,5 6 3 14 8 N 1017,8 12 0,0
16.10.2018 09:00:00 7,5 7,1 10 5 15 8 WNW 1017,2 5 0,0
16.10.2018 08:00:00 7,4 7,1 5 3 19 10 W 1016,4 6 0,0
16.10.2018 07:00:00 7,2 6,8 12 6 22 12 W 1015,9 6 0,0
16.10.2018 06:00:00 7,2 6,6 13 7 22 12 W 1015,9 7 0,0
16.10.2018 05:00:00 7,6 6,9 16 9 23 12 ZW 1015,2 10 0,0
16.10.2018 04:00:00 7,6 7,0 16 8 28 15 ZW 1015,1 8 0,0
16.10.2018 03:00:00 7,9 7,1 18 10 28 15 ZW 1015,0 9 0,0
16.10.2018 02:00:00 8,3 7,4 21 12 31 17 ZW 1014,9 10 0,0
16.10.2018 01:00:00 8,1 7,2 19 11 34 19 WZW 1014,7 10 0,0
16.10.2018 00:00:00 8,9 7,7 21 11 40 21 ZW 1014,6 12 0,0
15.10.2018 23:00:00 9,0 7,8 23 12 40 21 ZW 1014,7 11 0,0
15.10.2018 22:00:00 9,3 8,2 30 16 39 21 ZZW 1014,6 10 0,0
15.10.2018 21:00:00 9,2 8,1 29 15 39 21 ZZW 1014,7 9 0,0
15.10.2018 20:00:00 9,4 8,2 30 16 39 21 ZZW 1014,6 10 0,0
15.10.2018 19:00:00 9,4 8,2 28 15 38 20 ZZW 1014,7 10 0,0
15.10.2018 18:00:00 9,5 8,4 30 16 37 20 ZZW 1014,6 9 0,0
15.10.2018 17:00:00 9,7 8,6 29 15 37 20 ZZW 1014,7 9 0,0
15.10.2018 16:00:00 10,0 8,8 26 14 32 18 Z 1014,9 9 0,0
15.10.2018 15:00:00 10,2 8,6 22 12 28 15 ZZW 1015,3 9 0,0
15.10.2018 14:00:00 10,5 8,6 17 9 29 16 ZZW 1015,7 10 0,0
15.10.2018 13:00:00 10,6 8,7 17 9 39 21 ZZW 1015,7 10 0,0
15.10.2018 12:00:00 10,2 8,5 23 12 40 22 ZZW 1015,8 9 0,0
15.10.2018 11:00:00 9,9 8,7 30 16 40 22 ZZW 1015,6 9 0,0
15.10.2018 10:00:00 9,6 8,5 26 14 35 19 ZZW 1015,5 7 0,0
15.10.2018 09:00:00 9,2 8,3 23 13 35 19 ZZW 1015,8 7 0,0
15.10.2018 08:00:00 9,0 8,2 26 14 36 20 ZZW 1015,3 6 0,0
15.10.2018 07:00:00 9,2 8,1 26 14 42 23 ZZW 1015,1 8 0,0
15.10.2018 06:00:00 9,4 8,3 26 14 42 23 ZZW 1015,0 8 0,0
15.10.2018 05:00:00 9,4 8,3 30 16 42 23 ZZW 1015,0 8 0,0
15.10.2018 04:00:00 9,6 8,4 32 17 41 22 ZZW 1014,8 9 0,0
15.10.2018 03:00:00 9,6 8,5 31 17 41 22 ZZW 1014,8 9 0,0
15.10.2018 02:00:00 9,8 8,6 29 16 43 23 ZZW 1015,1 10 0,0
15.10.2018 01:00:00 9,9 8,5 21 12 46 25 ZW 1015,7 11 0,0
15.10.2018 00:00:00 10,6 8,9 31 17 46 25 Z 1015,1 12 0,0
14.10.2018 23:00:00 10,9 9,0 33 18 45 25 Z 1015,3 12 0,0
14.10.2018 22:00:00 10,2 8,8 27 15 35 19 Z 1015,7 9 0,0
14.10.2018 21:00:00 10,0 8,6 17 9 31 17 ZZW 1016,5 9 0,0
14.10.2018 20:00:00 9,2 8,4 8 4 29 16 W 1016,9 5 0,0
14.10.2018 19:00:00 10,0 8,9 20 11 30 16 Z 1016,4 8 0,0
14.10.2018 18:00:00 10,2 9,0 24 13 30 16 Z 1016,8 8 0,0
14.10.2018 17:00:00 9,8 8,9 22 12 40 22 ZZO 1017,3 5 0,0
14.10.2018 16:00:00 10,6 8,9 23 12 40 22 Z 1018,0 9 0,0
14.10.2018 15:00:00 11,0 9,1 26 14 34 18 Z 1018,6 8 0,0
14.10.2018 14:00:00 10,9 9,2 25 13 34 18 Z 1019,3 7 0,0
14.10.2018 13:00:00 10,9 9,2 24 13 32 18 Z 1019,8 5 0,0
14.10.2018 12:00:00 10,6 9,0 24 13 - - Z 1020,1 5 0,0
14.10.2018 11:00:00 10,3 9,1 23 13 - - Z 1020,2 4,8 0,0
14.10.2018 10:00:00 10,1 9,0 31 17 - - ZZW 1020,4 4,6 0,0
14.10.2018 09:00:00 9,5 8,6 24 13 38 20 ZZW 1020,3 4,5 0,0
14.10.2018 08:00:00 9,4 8,5 28 15 38 20 ZZW 1020,3 4,3 0,0
14.10.2018 07:00:00 9,6 8,7 29 16 36 19 ZZW 1020,5 4,2 0,0
14.10.2018 06:00:00 9,3 8,5 25 14 36 19 ZZW 1020,6 3,7 0,0
14.10.2018 05:00:00 9,7 8,6 28 15 36 19 ZZW 1020,9 4,4 0,0
14.10.2018 04:00:00 9,9 8,8 22 12 38 20 ZZW 1021,2 4,7 0,0
14.10.2018 03:00:00 9,8 8,7 24 13 40 22 ZZW 1021,5 4,5 0,0
14.10.2018 02:00:00 9,9 8,7 31 17 40 22 ZZW 1021,6 4,8 0,0
14.10.2018 01:00:00 9,7 8,6 29 16 41 22 ZZW 1021,6 4,1 0,0
14.10.2018 00:00:00 10,0 8,9 32 17 41 22 ZZW 1021,6 4,5 0,0
13.10.2018 23:00:00 10,0 8,8 32 17 41 22 ZZW 1021,9 5 0,0
13.10.2018 22:00:00 10,3 8,9 28 15 41 22 ZZW 1022,0 4,9 0,0
13.10.2018 21:00:00 10,1 8,9 29 16 37 20 ZZW 1022,1 4,6 0,0
13.10.2018 20:00:00 10,1 8,9 28 15 38 20 ZZW 1021,9 4,4 0,0
13.10.2018 19:00:00 10,3 8,7 28 15 38 20 ZZW 1021,9 6 0,0
13.10.2018 18:00:00 10,3 8,7 26 14 35 19 ZZW 1021,9 6 0,0
13.10.2018 17:00:00 10,5 8,9 26 14 - - ZZW 1022,0 7 0,0
13.10.2018 16:00:00 10,4 9,0 26 14 37 20 ZZW 1022,1 6 0,0
13.10.2018 15:00:00 10,7 9,0 28 15 41 22 ZZW 1022,2 7 0,0
13.10.2018 14:00:00 - - - - - - - - - -
13.10.2018 13:00:00 10,9 9,0 30 16 40 21 ZZW 1022,7 7 0,0
13.10.2018 12:00:00 10,5 8,9 27 15 34 18 ZZW 1023,2 6 0,0
13.10.2018 11:00:00 10,5 8,9 26 14 34 19 ZZW 1023,3 7 0,0
13.10.2018 10:00:00 - - - - 35 19 - - - -
13.10.2018 09:00:00 9,6 8,5 25 13 35 19 ZZW 1023,2 5 0,0
13.10.2018 08:00:00 9,0 8,2 21 11 30 16 ZZW 1023,1 4,3 0,0
13.10.2018 07:00:00 8,7 8,1 21 11 29 16 ZZW 1022,7 3,5 0,0
13.10.2018 06:00:00 8,3 7,9 19 11 26 14 ZZW 1022,7 3,2 0,0
13.10.2018 05:00:00 8,6 8,2 18 10 28 15 ZZW 1023,0 3,5 0,0
13.10.2018 04:00:00 8,5 8,1 20 11 28 15 ZW 1023,1 3,1 0,0
13.10.2018 03:00:00 8,4 8,0 18 10 27 14 ZW 1022,7 2,9 0,0
13.10.2018 02:00:00 8,4 7,8 19 10 26 14 ZW 1022,7 3,4 0,0
13.10.2018 01:00:00 8,4 7,8 17 9 32 17 ZW 1022,6 3,5 0,0
13.10.2018 00:00:00 8,4 7,6 13 7 35 19 WZW 1022,8 3,5 0,0
12.10.2018 23:00:00 9,3 8,5 22 12 35 19 ZZW 1022,7 4,8 0,0
12.10.2018 22:00:00 9,2 8,6 24 13 31 17 ZZW 1022,6 3,9 0,0
12.10.2018 21:00:00 9,3 8,7 20 11 35 19 ZZW 1022,9 4,2 0,0
12.10.2018 20:00:00 9,6 8,8 23 13 - - ZZW 1022,9 5 0,0
12.10.2018 19:00:00 9,4 8,6 24 13 - - Z 1022,3 5 0,0
12.10.2018 18:00:00 9,6 8,8 22 12 31 17 Z 1022,4 6 0,0
12.10.2018 17:00:00 9,9 8,8 21 11 31 17 Z 1022,6 7 0,0
12.10.2018 16:00:00 9,8 8,4 14 7 31 17 WZW 1023,4 7 0,0
12.10.2018 15:00:00 10,7 9,1 23 12 31 17 Z 1023,1 8 0,0
12.10.2018 14:00:00 10,6 9,0 23 12 29 16 Z 1023,5 8 0,0
12.10.2018 13:00:00 10,8 8,9 17 9 24 13 ZZW 1024,3 9 0,0
12.10.2018 12:00:00 10,6 9,0 12 7 21 11 ZW 1024,3 8 0,0
12.10.2018 11:00:00 10,6 9,4 14 8 24 13 Z 1024,4 7 0,0
12.10.2018 10:00:00 9,9 9,0 16 9 27 15 ZZO 1024,0 4,7 0,0
12.10.2018 09:00:00 9,5 9,0 22 12 27 15 ZZO 1023,8 3,9 0,0
12.10.2018 08:00:00 9,5 9,0 23 12 27 14 ZZO 1023,8 3,7 0,0
12.10.2018 07:00:00 8,9 8,6 14 8 22 12 ZZO 1023,9 3,0 0,0
12.10.2018 06:00:00 9,0 8,5 16 9 24 13 ZZO 1024,0 5 0,0
12.10.2018 05:00:00 9,2 8,7 19 11 26 14 ZZO 1024,0 6 0,0
12.10.2018 04:00:00 9,4 8,9 23 12 26 14 ZZO 1024,4 8 0,0
12.10.2018 03:00:00 9,4 9,1 18 10 25 14 ZZO 1024,8 10 0,0
12.10.2018 02:00:00 9,5 9,4 21 12 26 14 ZZO 1025,1 9 0,0
12.10.2018 01:00:00 9,4 9,3 23 13 26 14 ZO 1025,3 7 0,0
12.10.2018 00:00:00 8,4 8,3 17 9 21 11 O 1026,1 2,2 0,0
11.10.2018 23:00:00 8,0 7,9 16 8 21 11 O 1026,4 0,3 0,0

tt = temperatuur
td = dauwpunt
ff = windsnelheid
fx = windstoten
dd = windrichting
ppp = luchtdruk
vv = zicht
rr = neerslag

Weerstations in de omgeving